Regional Weather Roundup
Issued by NWS Grand Forks, ND

Home | Current Version | Previous Version | Graphics & Text | Print | Product List | Glossary On
Versions: 1 2 3 4 5 6 7 8 9 10 11 12 13 14 15 16 17 18 19 20 21 22 23 24 25 26 27 28 29 30 31 32 33 34 35 36 37 38 39 40 41 42 43 44 45 46 47 48 49 50
000
ASUS43 KFGF 220031
RWRFGF
PRAIRIE TO PINES  WEATHER ROUNDUP
NATIONAL WEATHER SERVICE EASTERN NORTH DAKOTA/GRAND FORKS ND
600 PM CST SUN DEC 21 2014

 **SATELLITE DATA USED TO AUGMENT SKY COVER AT AUTOMATED STATIONS**
 *****  WEATHER ACROSS EASTERN NORTH DAKOTA  *****

CITY           SKY/WX    TMP DP  RH WIND       PRES   REMARKS
GRAND FORKS    CLOUDY    32  30  92 SE13      29.59F WCI  22
6HR MIN TEMP:  31; 6HR MAX TEMP:  32;

GRAND FRKS AFB CLOUDY    32  32 100 S9        29.58F WCI  24
GRAND FRKS NWS   N/A     32 N/A N/A SE14        N/A  WCI  22
DEVILS LAKE    CLOUDY    30  23  74 SE13      29.49S WCI  20
6HR MIN TEMP:  25; 6HR MAX TEMP:  30;

FARGO          CLOUDY    35  31  85 SE12      29.58F
WAHPETON ARPT  CLOUDY    32  32 100 SE13G18   29.58F WCI  22
$$

 ***** WEATHER ACROSS CENTRAL AND WESTERN NORTH DAKOTA  *****

CITY           SKY/WX    TMP DP  RH WIND       PRES   REMARKS
BISMARCK       MOCLDY    29  28  96 SE9       29.44S WCI  20
6HR MIN TEMP:  28; 6HR MAX TEMP:  39;

MINOT          CLOUDY    34  30  85 E10       29.40R
6HR MIN TEMP:  28; 6HR MAX TEMP:  38;

JAMESTOWN      CLOUDY    31  30  96 SE8       29.49S FOG     WCI  23
6HR MIN TEMP:  31; 6HR MAX TEMP:  33;

MINOT AFB      MOCLDY    32  32 100 E13       29.39S WCI  23
GARRISON         N/A     30  27  88 S9        29.40R WCI  22
WILLISTON      CLOUDY    35  28  75 CALM      29.35R
6HR MIN TEMP:  29; 6HR MAX TEMP:  37;

DICKINSON      LGT RAIN  40  36  86 SW10      29.34R
6HR MIN TEMP:  38; 6HR MAX TEMP:  43; 6HR PCP: TRACE;

HETTINGER      MIX PCPN  37  29  72 CALM      29.39R
6HR MIN TEMP:  36; 6HR MAX TEMP:  41; 6HR PCP: TRACE;

$$

 *****  OTHER AIRPORT OBSERVATIONS IN OUR AREA  *****

CITY           SKY/WX    TMP DP  RH WIND       PRES   REMARKS
WALHALLA         N/A     30  30 100 SE14      29.57S FOG     WCI  20
GRAFTON AIRPOR NOT AVBL
VALLEY CITY AR CLOUDY    30  30 100 SE15      29.53R FOG     WCI  19
CANDO          CLOUDY    30  30 100 SE14      29.50F FOG     WCI  20
CAVALIER APRT  CLOUDY    32  32 100 SE10G18   29.58F FOG     WCI  24
GWINNER        CLOUDY    34  34 100 SE14      29.55R WCI  24
SHEYENNE NWR     N/A     32  31  95 SE13      29.95  WCI  22
ROLLA          FOG       27  27 100 S13       29.48F VSB 1/4 WCI  16
 ***** THE ABOVE OBSERVATIONS ARE NON NWS ARE NOT QUALITY
       CONTROLLED AND MAY MIS-REPORT RAIN FOR SNOW...
$$

  *****  WEATHER ACROSS NORTHERN MINNESOTA  *****

CITY           SKY/WX    TMP DP  RH WIND       PRES   REMARKS
FLAG ISLAND    CLOUDY    30  28  93 S13       29.65S WCI  20
WARROAD        CLOUDY    30  28  93 SE10      29.65S WCI  21
ROSEAU         CLOUDY    32  27  80 SE10      29.64S WCI  24
HALLOCK        CLOUDY    32  30  93 CALM      29.61R FOG
THF RVR FALLS  CLOUDY    32  30  93 SE8       29.62S WCI  25
6HR MIN TEMP:  30; 6HR MAX TEMP:  32;

BAUDETTE       CLOUDY    31  29  92 VRB3      29.66S
6HR MIN TEMP:  31; 6HR MAX TEMP:  31;

WASKISH        CLOUDY    34  30  86 CALM      29.66S
CROOKSTON      CLOUDY    32  30  93 SE7       29.61F
STEPHEN NDAWN    N/A     32  30  93 S12         N/A  WCI  23
GREENBUSH NDAW   N/A     30  30 100 S1          N/A
$$
  *****  WEATHER ACROSS CENTRAL AND WEST MINNESOTA  *****

CITY           SKY/WX    TMP DP  RH WIND       PRES   REMARKS
FOSSTON        CLOUDY    30  28  93 SE8       29.61F WCI  23
BEMIDJI        CLOUDY    32  31  95 SE9       29.64S WCI  24
PARK RAPIDS    CLOUDY    33  32  96 SE9       29.62F FOG
6HR MIN TEMP:  31; 6HR MAX TEMP:  33;

ELBOW LAKE     CLOUDY    33  33 100 SE14G21   29.59S FOG     WCI  23
6HR MIN TEMP:  31; 6HR MAX TEMP:  33;

WADENA         CLOUDY    32  32 100 SE8       29.63S FOG     WCI  25
DETROIT LAKES  CLOUDY    32  32 100 SE13G18   29.61R FOG     WCI  22
MOORHEAD       CLOUDY    34  34 100 SE10      29.60R
FERGUS FALLS   CLOUDY    34  32  93 SE14      29.62F FOG     WCI  24
MORRIS MN      CLOUDY    34  34 100 SE14      29.59S FOG     WCI  24
STAPLES        CLOUDY    32  32 100 SE7       29.64F FOG
$$
  *****  WEATHER ELSEWHERE ACROSS MINNESOTA  *****

CITY           SKY/WX    TMP DP  RH WIND       PRES   REMARKS
DULUTH         FRZ DRZL  33  31  92 SE12      29.73F VSB 1   WCI  24
6HR MIN TEMP:  31; 6HR MAX TEMP:  32; 6HR PCP: TRACE;

INTRNTL FALLS  CLOUDY    32  30  92 SE6       29.70S FOG
6HR MIN TEMP:  30; 6HR MAX TEMP:  32;

ELY            CLOUDY    30  30 100 S6        29.74R WCI  24
CLOQUET        CLOUDY    32  30  93 SE5       29.72F FOG
WHEATON        CLOUDY    30  30 100 SE14      29.60R FOG     WCI  20
BRAINERD       CLOUDY    33  33 100 SE7       29.68S FOG
6HR MIN TEMP:  32; 6HR MAX TEMP:  33;

HIBBING        CLOUDY    33  30  88 SE8       29.71S FOG
6HR MIN TEMP:  31; 6HR MAX TEMP:  33;

ALEXANDRIA     FOG       34  33  96 SE13      29.62F VSB 3/4 WCI  25
6HR MIN TEMP:  32; 6HR MAX TEMP:  34;

SAINT CLOUD    FOG       36  34  92 SE12      29.68S VSB 3/4
6HR MIN TEMP:  35; 6HR MAX TEMP:  36;

MINNEAPOLIS    CLOUDY    36  35  96 SE8       29.74F FOG
6HR MIN TEMP:  34; 6HR MAX TEMP:  38; 6HR PCP:  0.08;

$$

  *****  WEATHER ACROSS SOUTH DAKOTA  *****

CITY           SKY/WX    TMP DP  RH WIND       PRES   REMARKS
SIOUX FALLS    CLOUDY    38  36  92 S21G32    29.58S
6HR MIN TEMP:  34; 6HR MAX TEMP:  38;

BROOKINGS      NOT AVBL
WATERTOWN      CLOUDY    34  33  96 S17       29.51F FOG     WCI  23
6HR MIN TEMP:  31; 6HR MAX TEMP:  34;

HURON          MOCLDY    35  32  88 S14G23    29.48F
6HR MIN TEMP:  31; 6HR MAX TEMP:  36;

SISSETON         N/A     33  33 100 S13       29.54F WCI  24
ABERDEEN       CLOUDY    33  30  88 SE5       29.51S
6HR MIN TEMP:  32; 6HR MAX TEMP:  35;

MITCHELL       CLOUDY    36  33  89 S17G30    29.51S
PIERRE         MOCLDY    31  28  89 NE8       29.40S WCI  23
6HR MIN TEMP:  30; 6HR MAX TEMP:  35;

MOBRIDGE       MOCLDY    30  28  92 E12       29.41R WCI  20
RAPID CITY     CLOUDY    39  27  62 N8        29.41R
6HR MIN TEMP:  38; 6HR MAX TEMP:  50; 6HR PCP: TRACE;

$$

  *****  SOME WEATHER IN NEARBY STATES *****

CITY           SKY/WX    TMP DP  RH WIND       PRES   REMARKS
GLASGOW MT     CLOUDY    32  30  92 SW5       29.36R
6HR MIN TEMP:  31; 6HR MAX TEMP:  33; 6HR PCP:  0.05;

GREAT FALLS MT CLOUDY    41  22  46 W16       29.57R
6HR MIN TEMP:  41; 6HR MAX TEMP:  48;

CHEYENNE WY    CLOUDY    39  31  72 NW14G22   29.55R
6HR MIN TEMP:  39; 6HR MAX TEMP:  47; 6HR PCP: TRACE;

SCOTTSBLUFF NE CLOUDY    40  32  73 NW10      29.49R
6HR MIN TEMP:  39; 6HR MAX TEMP:  46; 6HR PCP: TRACE;

OMAHA NE       CLOUDY    42  39  89 S17       29.72F
6HR MIN TEMP:  41; 6HR MAX TEMP:  42;

DES MOINES IA  CLOUDY    42  37  82 S12       29.81F
6HR MIN TEMP:  41; 6HR MAX TEMP:  43;

DAVENPORT IA   CLOUDY    37  31  78 SE15      29.96S
6HR MIN TEMP:  37; 6HR MAX TEMP:  40;

CHICAGO IL     CLOUDY    35  28  75 S10       30.08S
6HR MIN TEMP:  34; 6HR MAX TEMP:  36;

EAU CLAIRE WI  MIX PCPN  36  34  92 S9        29.80F
6HR MIN TEMP:  33; 6HR MAX TEMP:  37; 6HR PCP:  0.02;

LA CROSSE WI   LGT RAIN  39  36  89 S17       29.85F
6HR MIN TEMP:  38; 6HR MAX TEMP:  39; 6HR PCP: TRACE;

$$

  *****  SOME NATIONAL WEATHER *****

CITY           SKY/WX    TMP DP  RH WIND       PRES   REMARKS
LA GUARDIA NY  CLOUDY    34  29  82 N8        30.34R
6HR MIN TEMP:  34; 6HR MAX TEMP:  36; 6HR PCP: TRACE;

RALEIGH NC     CLOUDY    45  34  65 E6        30.25F
6HR MIN TEMP:  45; 6HR MAX TEMP:  50;

ATLANTA GA     CLOUDY    49  44  83 E9        30.11R
6HR MIN TEMP:  48; 6HR MAX TEMP:  50;

NEW ORLEANS LA CLOUDY    55  51  86 NE7       29.99F
6HR MIN TEMP:  55; 6HR MAX TEMP:  58;

OKLAHOMA CITY  CLOUDY    47  43  86 S15       29.74S FOG
6HR MIN TEMP:  47; 6HR MAX TEMP:  48; 6HR PCP:  0.01;

ALBUQUERQUE NM PTCLDY    48  29  47 NE9       29.94R
6HR MIN TEMP:  43; 6HR MAX TEMP:  51;

SALT LAKE CITY LGT RAIN  43  39  86 SE12      29.92F
6HR MIN TEMP:  40; 6HR MAX TEMP:  44; 6HR PCP:  0.13;




USA.gov is the U.S. government's official web portal to all federal, state and local government web resources and services.